307  
AXUS43 KLBF 181110  
MISLBF  
 
WESTERN AND NORTH CENTRAL NEBRASKA HOURLY WEATHER ROUNDUP  
NATIONAL WEATHER SERVICE NORTH PLATTE NE  
600 AM CDT FRI SEP 18 2020  
 
NOTE: "FAIR" INDICATES FEW OR NO CLOUDS BELOW 12,000 FEET WITH NO  
SIGNIFICANT WEATHER AND/OR OBSTRUCTIONS TO VISIBILITY.  
 
NOTE: STATIONS NOT REPORTING SKY/WEATHER AND PRESSURE ARE  
PROVIDED BY RAWS AND APRS NETWORKS AND ARE NOT UNDER NATIONAL  
WEATHER SERVICE QUALITY CONTROL.  
   
..OBSERVATIONS IN AND NEAR THE EASTERN PANHANDLE OF NEBRASKA
 
 
 
CITY SKY/WX TMP DP RH WIND PRES REMARKS  
PINE RIDGE CLEAR 38 37 97 CALM 30.26S  
GORDON FOG 38 38 97 CALM 30.26F VSB 1  
CHADRON CLEAR 41 39 93 SW3 30.26F  
ALLIANCE CLEAR 37 35 92 W8 30.26F  
SIDNEY CLEAR 47 43 86 NW3 30.26S  
CRESCENT LAKE N/A 47 46 97 N3 N/A  

 
   
..OBSERVATIONS IN NORTHERN NEBRASKA AND FAR SOUTHERN SOUTH DAKOTA
 
 
 
CITY SKY/WX TMP DP RH WIND PRES REMARKS  
WINNER FAIR 49 44 83 E10 30.27S  
VALENTINE CLEAR 47 44 90 NE6 30.26R  
AINSWORTH CLEAR 49 48 99 E7 30.26S  
O'NEILL MOCLDY 51 40 67 E9 30.30R  
THEDFORD FOG 49 48 99 CALM 30.26S VSB<1/4  
BROKEN BOW CLEAR 51 49 92 E6 30.25S  
ORD CLEAR 48 46 93 SE3 30.26S  
ALBION CLOUDY 51 43 73 E7 30.30S  
EWING N/A 50 43 78 E3 N/A  
CHAMBERS N/A 50 44 80 E3 N/A  
BUTTE N/A 51 42 70 E10G17 N/A  
VALENTINE NWR N/A 47 47 100 E6 N/A  
HALSEY N/A 49 49 99 CALM N/A  

 
   
..OBSERVATIONS IN SOUTHWEST NEBRASKA AND FAR NORTHEAST COLORADO
 
 
 
CITY SKY/WX TMP DP RH WIND PRES REMARKS  
WRAY FAIR 45 45 100 W7 30.23 FOG  
IMPERIAL CLEAR 48 47 96 NE6 30.22R FOG  
OGALLALA CLEAR 51 49 90 CALM 30.24R  
NORTH PLATTE CLEAR 51 48 89 E5 30.23S  
MCCOOK CLEAR 55 51 86 SE6 30.21S  
LEXINGTON CLEAR 53 51 92 E8 30.24F  
CALLAWAY N/A 52 50 93 SE3 N/A  
STAPLETON N/A 48 46 94 CALM N/A  

 
   
..OBSERVATIONS IN CENTRAL LINCOLN COUNTY AREA
 
 
 
CITY SKY/WX TMP DP RH WIND PRES REMARKS  
N.P. AIRPORT CLEAR 51 48 89 E5 30.23S  
N.P. HILLCREST N/A 54 52 92 E6 N/A  
N.P. DOWNTOWN N/A 54 52 92 CALM N/A  
N.P. SOUTHEAST N/A 52 50 93 CALM N/A  

 
   
..OBSERVATIONS ACROSS THE ROCKIES AND WESTERN HIGH PLAINS
 
 
 
CITY SKY/WX TMP DP RH WIND PRES REMARKS  
SCOTTSBLUFF CLEAR 45 43 93 NW6 30.28S  
KIMBALL CLEAR 46 44 94 NW6 30.30S  
CHEYENNE CLEAR 45 39 79 W7 30.34F  
DENVER CLEAR 52 43 71 SW6 30.32S HAZE  
STEAMBOAT FAIR 40 25 56 CALM 30.37  
COPPER MTN CLEAR 46 19 34 S14 30.71  
LEADVILLE CLEAR 32 22 66 CALM 30.58S  
ASPEN PTCLDY 42 27 55 CALM 30.44R  
GUNNISON CLEAR 37 31 78 CALM 30.49S  
TELLURIDE PTCLDY 48 27 43 SE3 30.53  
LARAMIE CLEAR 43 35 73 S12 30.37F  
CASPER CLEAR 41 38 89 W3 30.25F FOG  
SHERIDAN CLEAR 45 40 82 CALM 30.14F  
JACKSON PTCLDY 38 31 76 N3 30.30S  
YELLOWSTONE N/A 35 29 78 W3 30.38F  

 
   
..OBSERVATIONS ACROSS THE NORTHERN PLAINS
 
 
 
CITY SKY/WX TMP DP RH WIND PRES REMARKS  
RAPID CITY CLEAR 44 42 93 CALM 30.25F  
PIERRE CLEAR 42 37 82 E7 30.27F  
SIOUX FALLS PTCLDY 46 36 68 E5 30.36R  
ABERDEEN CLEAR 40 36 86 S5 30.35R  
WILLISTON FAIR 45 43 93 E3 30.21S  
DICKINSON PTCLDY 48 44 86 S15 30.21F  
BISMARCK PTCLDY 43 40 89 E7 30.29F  
FARGO PTCLDY 43 40 89 SE6 30.36F  
GRAND FORKS PTCLDY 40 33 76 SE7 30.35F  

 
   
..OBSERVATIONS ACROSS THE CENTRAL AND SOUTHERN PLAINS
 
 
 
CITY SKY/WX TMP DP RH WIND PRES REMARKS  
GRAND ISLAND PTCLDY 53 49 86 E6 30.28R  
LINCOLN MOCLDY 52 45 77 E7 30.31R  
OMAHA PTCLDY 49 42 77 NW5 30.32R  
DES MOINES MOCLDY 50 39 66 NE9 30.31R  
KANSAS CITY CLEAR 50 48 93 N8 30.24R  
WICHITA PTCLDY 54 51 90 N6 30.21R  
DODGE CITY CLEAR 58 55 90 S9 30.23S FOG  
OKLAHOMA CITY CLEAR 60 54 80 NE9 30.16S  
DALLAS PTCLDY 68 62 81 N3 30.06R  
AMARILLO CLEAR 55 49 80 SW5 30.25S  

 
 
 
CLICK HERE TO GO TO PREVIOUS BULLETINS.

The Nexlab NE Page Main Text Page